カタログに戻る

BREEZE-M DEB

TANK

運用中HEO
NORAD 39287·DEBRIS·🇷🇺 Russia

打ち上げ Sep 29, 2013 から Baikonur Cosmodrome

Loading…

次のパス (今後24時間)

TLE

最新Source: Space-Track

元期: Sep 14, 2026, 09:52 UTC

1 39287U 13056C   26257.41165662  .00001841  00000-0  41712-3 0  9999
2 39287  49.5176 266.1667 5161921 246.6623  52.1267  5.33243695247029

AllMySatでBREEZE-M DEBをリアルタイム追跡

Download on the App Store